Regional Weather Roundup
Issued by NWS

Home | Current Version | Previous Version | Text Only | Print | Product List | Glossary On
Versions: 1 2 3 4 5 6 7 8 9 10 11 12 13 14 15 16 17 18 19 20 21 22 23 24 25 26 27 28 29 30 31 32 33 34 35 36 37 38 39 40 41 42 43 44 45 46 47 48 49 50
000
ASUS44 KFWD 042315
RWRTX
NORTH TEXAS HOURLY WEATHER ROUNDUP
NATIONAL WEATHER SERVICE FORT WORTH TX
600 PM CDT TUE AUG 04 2015

NOTE: "FAIR" INDICATES FEW OR NO CLOUDS BELOW 12,000 FEET WITH NO
SIGNIFICANT WEATHER AND/OR OBSTRUCTIONS TO VISIBILITY.

TXZ118-119-050000-
DALLAS/FORT WORTH METROPLEX

CITY           SKY/WX    TMP DP  RH WIND       PRES   REMARKS
DFW AIRPORT    MOSUNNY   97  62  31 S12       29.88S HX  98
DALLAS LOVE    MOSUNNY   98  62  30 S12       29.88S HX  99
FTW MEACHAM    MOSUNNY   98  61  29 S12       29.87F HX  98
DAL-EXECUTIVE  SUNNY     96  63  33 SE7       29.88F HX  97
FTW-ALLIANCE   MOSUNNY   99  61  28 S9        29.87F HX  99
FTW-NAS-JRB    MOSUNNY   99  62  29 S10       29.88F HX 100
FTW-SPINKS     MOSUNNY   99  59  26 S7        29.90F HX  98
ARLINGTON      MOSUNNY   98  62  30 SE15      29.88F HX  99
GRAND PRAIRIE  SUNNY     97  64  34 SE5       29.90S HX  99
ADDISON        MOSUNNY   97  59  28 SE12G20   29.89F HX  96
MESQUITE       SUNNY     97  61  30 SE10      29.89F HX  97
LANCASTER      SUNNY     97  60  28 S8        29.89F HX  97
$$

TXZ091>094-102>105-117-120-121-131>134-050000-
NORTH CENTRAL TEXAS

CITY           SKY/WX    TMP DP  RH WIND       PRES   REMARKS
SHRMAN/DENISON MOSUNNY   97  64  33 SE14      29.90F HX  99
GAINESVILLE    MOSUNNY   96  64  35 SE13      29.90F HX  98
BOWIE          PTSUNNY   92  65  40 S5        29.90S HX  94
DECATUR        MOSUNNY   96  61  31 S10       29.90F HX  96
DENTON         SUNNY     96  63  33 S13       29.88F HX  97
MCKINNEY       SUNNY     97  61  30 S12       29.89F HX  97
GREENVILLE     SUNNY     97  55  24 SE12      29.90F HX  95
ROCKWALL       MOSUNNY   97  64  33 S9G18     29.89S HX  98
TERRELL        SUNNY     97  59  28 S10       29.90F HX  96
WAXAHACHIE     PTSUNNY   97  66  36 S13       29.90F HX 100
CLEBURNE       SUNNY     95  64  36 SE14      29.91S HX  97
GRANBURY       MOSUNNY   98  63  31 SE10G18   29.89S HX 100
$$

TXZ083>090-098>101-113>116-127>130-139>142-154-155-050000-
WESTERN NORTH TEXAS

CITY           SKY/WX    TMP DP  RH WIND       PRES   REMARKS
WICHITA FALLS  MOSUNNY   95  68  41 S12       29.87F HX  99
WF-KICKAPOO    MOSUNNY   97  63  33 SE8       29.89F HX  98
VERNON         SUNNY     95  60  30 S10       29.88F HX  95
ABILENE        PTSUNNY   95  63  34 SE13      29.91F HX  96
ABILENE-DYESS  MOSUNNY   98  65  34 SE14      29.89F HX 101
BRECKENRIDGE   MOSUNNY   98  62  30 SE12      29.89S HX  99
GRAHAM         MOSUNNY   96  67  38 SE8       29.87F HX 100
MINERAL WELLS  SUNNY     94  67  41 S9        29.88F HX  97
STEPHENVILLE   SUNNY     96  60  30 SE8       29.94S HX  96
COMANCHE       SUNNY     98  62  30 S9        29.90F HX  98
BROWNWOOD      LGT RAIN  95  61  31 SE9       29.90S HX  95
COLEMAN        SUNNY     97  65  33 SE12      29.92S HX 100
BRADY          SUNNY    100  57  23 SE7       29.92S HX  99
$$

TXZ143>147-156>162-174-175-050000-
CENTRAL TEXAS

CITY           SKY/WX    TMP DP  RH WIND       PRES   REMARKS
WACO           SUNNY     98  67  36 S10       29.88F HX 102
WACO-TSTC      MOSUNNY   99  64  32 S6        29.89S HX 101
HILLSBORO      SUNNY     97  61  30 SE12      29.89F HX  97
CORSICANA      SUNNY     98  66  34 S10       29.90F HX 101
MEXIA          MOSUNNY   96  68  39 SE18G25   29.89F HX 101
HEARNE         SUNNY     97  70  42 SE10      29.90F HX 104
CAMERON        SUNNY     98  68  37 SE7       29.89S HX 102
TEMPLE         SUNNY     99  64  32 S10G16    29.90S HX 101
KILLEEN        SUNNY     97  66  35 S16       29.89S HX 100
KILLEEN-SKYLRK SUNNY     97  66  36 SE13      29.89S HX 100
FORT HOOD      MOSUNNY   97  66  36 S10       29.88F HX 100
GATESVILLE     SUNNY     99  66  34 SE6       29.91S HX 102
HAMILTON       SUNNY     98  60  28 S13       29.92S HX  99
$$

TXZ095>097-106>112-122>126-135>138-148>153-164>167-050000-
EAST TEXAS

CITY           SKY/WX    TMP DP  RH WIND       PRES   REMARKS
PARIS          MOSUNNY   97  64  34 S12       29.90F HX  99
SULPHUR SPRNGS SUNNY     97  57  26 S12G17    29.92F HX  96
MOUNT PLEASANT MOSUNNY   98  59  27 S6        29.91S HX  97
GILMER         SUNNY     95  63  34 SE8       29.90F HX  96
MINEOLA        MOSUNNY   97  57  26 SE5       29.91F HX  95
TYLER          MOSUNNY   97  63  32 S9        29.91F HX  98
LONGVIEW       SUNNY     97  64  33 SE8       29.90F HX  99
MARSHALL       SUNNY     99  60  27 S7        29.93S HX  99
ATHENS         SUNNY     95  63  34 SE6       29.90S HX  96
PALESTINE      SUNNY     97  64  33 SW5       29.92S HX  99
JACKSONVILLE   SUNNY     97  59  28 S7        29.94F HX  96
HENDERSON      SUNNY     96  60  29 S7        29.92F HX  96
CENTER         FAIR      99  62  30 SW7       29.91S HX 100
NACOGDOCHES    SUNNY     93  70  46 S8        29.91S HX  99
LUFKIN         MOSUNNY   96  64  34 VRB6      29.90F HX  98
$$

SUPPLEMENTAL OBSERVATIONS (CENTRAL)

CITY           SKY/WX    TMP DP  RH WIND       PRES   REMARKS
LAKE TEXOMA      N/A    N/A N/A N/A S12         N/A
CADDO GRASSLND   N/A     97  66  36 S8          N/A  HX 100
PAT MAYSE LAKE   N/A     93  70  46 NE5         N/A  HX  99
ATHENS           N/A     97  61  30 S6          N/A  HX  97
LAKE LIMESTONE   N/A     99  66  34 S8          N/A  HX 102
MCGREGOR         N/A     99  64  32 S10         N/A  HX 101
TEMPLE           N/A     97  64  34 S10         N/A  HX  99
$$

SUPPLEMENTAL OBSERVATIONS (WEST)

CITY           SKY/WX    TMP DP  RH WIND       PRES   REMARKS
MILLERS CREEK    N/A     97  66  36 SE9         N/A  HX 100
POSSUM KINGDOM   N/A     99  64  32 SE12        N/A  HX 101
LBJ GRASSLAND    N/A     93  64  38 SE8         N/A  HX  95
GRANBURY         N/A     97  63  32 SE14        N/A  HX  98
COMANCHE         N/A     97  59  28 SE8         N/A  HX  96
HAMBY            N/A     99  64  32 SE8G17      N/A  HX 101
COLORADO BEND    N/A     97  59  28 S9          N/A  HX  96
$$

SUPPLEMENTAL OBSERVATIONS (EAST)

CITY           SKY/WX    TMP DP  RH WIND       PRES   REMARKS
CLARKSVILLE      N/A     93  66  40 SE5         N/A  HX  96
TEXARKANA        N/A     91  73  55 CALM        N/A  HX 100
LINDEN           N/A     99  59  26 SW5         N/A  HX  98
CADDO LAKE       N/A     99  64  32 S3          N/A  HX 101
GILMER           N/A     97  63  32 S7          N/A  HX  98
HENDERSON        N/A     97  59  28 S7          N/A  HX  96
LUFKIN           N/A     99  64  32 MISG        N/A  HX 101
N SABINE NF      N/A     99  70  39 MISG        N/A  HX 105
S SABINE NF      N/A     99  66  34 CALM        N/A  HX 102
$$

SUPPLEMENTAL OBSERVATIONS ARE A COLLECTION OF AUTOMATED INSTRUMENTS
THAT ARE MAINTAINED BY A VARIETY OF FEDERAL AND STATE AGENCIES.
CERTAIN ELEMENTS...SUCH AS HUMIDITY VALUES AND SUSTAINED WIND
SPEEDS...MAY BE APPROXIMATED.



USA.gov is the U.S. government's official web portal to all federal, state and local government web resources and services.